Location: Winnipauk Village
(41.1295°N, 73.4171°W)
Time: 19:41:33
(UTC+00:00)

N. Korean satellite - Visible Passes

Search period start: 01 August 2021 00:00
Search period end: 11 August 2021 00:00
Orbit: 451 x 498 km, 97.2° (Epoch: 01 August)

Date Brightness Start Highest point End Pass type
(mag) Time Alt. Az. Time Alt. Az. Time Alt. Az.
03 Aug 9.4 09:22:35 10° NE 09:24:58 17° E 09:27:19 10° SE visible
07 Aug 10.0 09:07:29 10° E 09:08:05 10° E 09:08:41 10° E visible
10 Aug 9.6 09:16:59 10° ENE 09:18:54 14° E 09:20:49 10° SE visible
